AAL2120 KDCA-KBOS

Flight info

Callsign AAL2120
Flight time N/A
Altitude 35000
Route SOOKI6 SWANN BROSS Q419 JFK ROBUC3
Aircraft B738/M-SDE2E3FGHIRWXY/LB1

Departure

Time 2026-04-26 01:31
Airport Ronald Reagan Washington National Airport (KDCA)

Arrival

Time N/A
Airport Boston Logan International Airport (KBOS)
Time Latitude Longitude Altitude Speed Heading
2026-04-26 01:19 38.85554 -77.04273 23 ft 0 kts 338°
2026-04-26 01:25 38.85553 -77.04272 23 ft 1 kts 338°
2026-04-26 01:25 38.85537 -77.04264 27 ft 3 kts 340°
2026-04-26 01:26 38.85518 -77.04256 27 ft 3 kts 352°
2026-04-26 01:26 38.85501 -77.04256 25 ft 3 kts 33°
2026-04-26 01:26 38.85494 -77.04264 26 ft 0 kts 74°
2026-04-26 01:26 38.85496 -77.04251 28 ft 3 kts 81°
2026-04-26 01:27 38.85499 -77.04239 28 ft 0 kts 71°
2026-04-26 01:28 38.85499 -77.04237 28 ft 2 kts 71°
2026-04-26 01:29 38.85515 -77.04178 25 ft 8 kts 71°
2026-04-26 01:29 38.85542 -77.04074 24 ft 16 kts 65°
2026-04-26 01:29 38.85639 -77.04040 24 ft 15 kts 354°
2026-04-26 01:29 38.85732 -77.03987 28 ft 15 kts 20°
2026-04-26 01:30 38.85843 -77.03985 25 ft 18 kts 355°
2026-04-26 01:30 38.85962 -77.03974 23 ft 15 kts 16°
2026-04-26 01:30 38.86053 -77.03938 24 ft 13 kts 22°
2026-04-26 01:30 38.86058 -77.03866 22 ft 10 kts 173°
2026-04-26 01:31 38.85886 -77.03849 29 ft 55 kts 176°
2026-04-26 01:31 38.85237 -77.03784 22 ft 129 kts 175°
2026-04-26 01:31 38.84154 -77.03684 226 ft 170 kts 175°
2026-04-26 01:31 38.83366 -77.03630 756 ft 169 kts 174°
2026-04-26 01:32 38.82237 -77.03444 1804 ft 159 kts 166°
2026-04-26 01:32 38.81101 -77.03173 2390 ft 179 kts 169°
2026-04-26 01:32 38.79775 -77.02861 2657 ft 207 kts 171°
2026-04-26 01:32 38.78283 -77.02520 2952 ft 226 kts 171°
2026-04-26 01:33 38.76734 -77.01952 3424 ft 238 kts 152°
2026-04-26 01:33 38.75523 -77.00445 3901 ft 258 kts 123°
2026-04-26 01:33 38.75017 -76.98167 4428 ft 275 kts 90°
2026-04-26 01:33 38.75417 -76.95755 5159 ft 282 kts 66°
2026-04-26 01:34 38.76277 -76.93471 5956 ft 286 kts 60°
2026-04-26 01:34 38.77224 -76.91219 6762 ft 289 kts 59°
2026-04-26 01:34 38.78194 -76.88955 7561 ft 291 kts 59°
2026-04-26 01:34 38.79171 -76.86665 8365 ft 294 kts 60°
2026-04-26 01:35 38.80153 -76.84340 9109 ft 299 kts 60°
2026-04-26 01:35 38.81142 -76.81978 9931 ft 301 kts 60°
2026-04-26 01:35 38.82139 -76.79582 10484 ft 313 kts 60°
2026-04-26 01:35 38.83200 -76.77020 10671 ft 337 kts 60°
2026-04-26 01:36 38.84333 -76.74274 10841 ft 359 kts 60°
2026-04-26 01:36 38.85530 -76.71360 11103 ft 376 kts 61°
2026-04-26 01:36 38.86759 -76.68355 11643 ft 384 kts 60°
2026-04-26 01:37 38.89255 -76.62233 12993 ft 391 kts 60°
2026-04-26 01:37 38.90521 -76.59123 13675 ft 396 kts 60°
2026-04-26 01:37 38.91808 -76.55959 14275 ft 401 kts 60°
2026-04-26 01:37 38.93108 -76.52762 14879 ft 406 kts 60°
2026-04-26 01:38 38.94421 -76.49526 15518 ft 410 kts 60°
2026-04-26 01:38 38.95743 -76.46266 16187 ft 414 kts 60°
2026-04-26 01:38 38.97080 -76.42967 16768 ft 419 kts 61°
2026-04-26 01:38 38.98435 -76.39621 17334 ft 424 kts 61°
2026-04-26 01:39 38.99804 -76.36234 17911 ft 429 kts 61°
2026-04-26 01:39 39.01185 -76.32812 18501 ft 433 kts 61°
2026-04-26 01:39 39.02576 -76.29365 19025 ft 436 kts 61°
2026-04-26 01:39 39.03980 -76.25881 19532 ft 441 kts 61°
2026-04-26 01:40 39.05396 -76.22363 20020 ft 445 kts 61°
2026-04-26 01:40 39.06826 -76.18808 20523 ft 449 kts 61°
2026-04-26 01:40 39.08265 -76.15223 21010 ft 453 kts 61°
2026-04-26 01:40 39.09717 -76.11603 21519 ft 456 kts 62°
2026-04-26 01:41 39.11174 -76.07965 22012 ft 459 kts 62°
2026-04-26 01:41 39.12645 -76.04288 22444 ft 464 kts 62°
2026-04-26 01:41 39.14128 -76.00579 22863 ft 468 kts 62°
2026-04-26 01:41 39.15622 -75.96835 23307 ft 472 kts 62°
2026-04-26 01:42 39.17127 -75.93063 23712 ft 475 kts 62°
2026-04-26 01:42 39.18814 -75.89390 24043 ft 478 kts 53°
2026-04-26 01:42 39.20916 -75.86058 24393 ft 479 kts 44°
2026-04-26 01:42 39.23381 -75.83171 24778 ft 479 kts 37°
2026-04-26 01:43 39.25950 -75.80425 25165 ft 481 kts 37°
2026-04-26 01:43 39.28541 -75.77675 25508 ft 484 kts 37°
2026-04-26 01:43 39.31142 -75.74888 25844 ft 487 kts 37°
2026-04-26 01:43 39.33740 -75.72067 26183 ft 490 kts 37°
2026-04-26 01:44 39.36313 -75.69243 26513 ft 493 kts 38°
2026-04-26 01:44 39.38925 -75.66362 26856 ft 496 kts 38°
2026-04-26 01:44 39.41556 -75.63459 27175 ft 498 kts 38°
2026-04-26 01:44 39.44196 -75.60547 27491 ft 501 kts 37°
2026-04-26 01:45 39.46892 -75.57582 27811 ft 503 kts 37°
2026-04-26 01:45 39.49567 -75.54645 28113 ft 505 kts 37°
2026-04-26 01:45 39.52250 -75.51695 28405 ft 508 kts 37°
2026-04-26 01:45 39.54950 -75.48723 28695 ft 510 kts 37°
2026-04-26 01:46 39.57655 -75.45741 29012 ft 512 kts 37°
2026-04-26 01:46 39.60365 -75.42748 29385 ft 512 kts 37°
2026-04-26 01:46 39.63069 -75.39759 29863 ft 510 kts 37°
2026-04-26 01:46 39.65760 -75.36786 30303 ft 508 kts 37°
2026-04-26 01:47 39.68452 -75.33810 30631 ft 508 kts 37°
2026-04-26 01:47 39.71146 -75.30829 30895 ft 510 kts 37°
2026-04-26 01:47 39.73846 -75.27836 31179 ft 511 kts 37°
2026-04-26 01:47 39.76550 -75.24836 31502 ft 511 kts 37°
2026-04-26 01:48 39.79236 -75.21806 31825 ft 512 kts 40°
2026-04-26 01:48 39.81686 -75.18511 32099 ft 515 kts 46°
2026-04-26 01:48 39.84025 -75.14977 32390 ft 516 kts 47°
2026-04-26 01:48 39.86332 -75.11387 32687 ft 517 kts 47°
2026-04-26 01:49 39.88647 -75.07805 32985 ft 517 kts 47°
2026-04-26 01:49 39.90983 -75.04255 33340 ft 515 kts 46°
2026-04-26 01:49 39.93324 -75.00746 33800 ft 512 kts 46°
2026-04-26 01:49 39.95666 -74.97248 34065 ft 513 kts 46°
2026-04-26 01:50 39.97942 -74.93644 34269 ft 516 kts 52°
2026-04-26 01:50 39.99993 -74.89791 34550 ft 517 kts 54°
2026-04-26 01:50 40.01947 -74.85865 34864 ft 515 kts 55°
2026-04-26 01:50 40.03870 -74.81932 35090 ft 516 kts 55°
2026-04-26 01:51 40.05821 -74.77971 35065 ft 519 kts 55°
2026-04-26 01:51 40.09779 -74.70089 35073 ft 517 kts 54°
2026-04-26 01:52 40.13731 -74.62306 35077 ft 513 kts 54°
2026-04-26 01:52 40.17664 -74.54536 35081 ft 512 kts 54°
2026-04-26 01:53 40.22072 -74.47319 35075 ft 505 kts 38°
2026-04-26 01:53 40.27489 -74.41551 35086 ft 502 kts 33°
2026-04-26 01:54 40.32968 -74.35861 35093 ft 504 kts 34°
2026-04-26 01:54 40.38416 -74.30067 35115 ft 505 kts 35°
2026-04-26 01:55 40.43859 -74.24215 35122 ft 506 kts 35°
2026-04-26 01:55 40.49303 -74.18358 35142 ft 507 kts 34°
2026-04-26 01:56 40.54279 -74.11744 35139 ft 516 kts 52°
2026-04-26 01:56 40.56122 -74.07681 35141 ft 519 kts 63°
2026-04-26 01:56 40.57439 -74.03259 35140 ft 520 kts 73°
2026-04-26 01:57 40.59425 -73.94108 35139 ft 521 kts 73°
2026-04-26 01:57 40.61470 -73.84969 35150 ft 520 kts 72°
2026-04-26 01:58 40.64004 -73.76105 35138 ft 515 kts 53°
2026-04-26 01:58 40.68618 -73.69038 35162 ft 508 kts 42°
2026-04-26 01:59 40.73454 -73.62228 35147 ft 509 kts 43°
2026-04-26 01:59 40.78224 -73.55305 35103 ft 510 kts 44°
2026-04-26 02:00 40.82930 -73.48371 35121 ft 511 kts 43°
2026-04-26 02:00 40.87676 -73.41381 35115 ft 511 kts 43°
2026-04-26 02:00 40.90025 -73.37911 35093 ft 498 kts 43°
2026-04-26 02:01 40.92295 -73.34546 35108 ft 483 kts 43°
2026-04-26 02:01 40.94497 -73.31279 35103 ft 469 kts 43°
2026-04-26 02:01 40.96634 -73.28108 35114 ft 455 kts 43°
2026-04-26 02:01 40.98712 -73.25026 35125 ft 442 kts 42°
2026-04-26 02:02 41.00728 -73.22032 35123 ft 430 kts 42°
2026-04-26 02:02 41.02686 -73.19124 35124 ft 417 kts 42°
2026-04-26 02:02 41.04596 -73.16287 35140 ft 411 kts 42°
2026-04-26 02:03 41.08468 -73.10550 35169 ft 425 kts 42°
2026-04-26 02:03 41.12469 -73.04594 35175 ft 437 kts 42°